| time (UTC) | temp F | wind direction | speed MPH | gust MPH | rain 1hr in | rain 24hr in | rain mn in | humidity % | barometer mb |
| 20260505100208 | 55 | 294 | 4.0 | 5.0 | 0.00 | 0.00 | 0.00 | 59 | 1008.8 |
| 20260505095210 | 55 | 45 | 3.0 | 3.0 | 0.00 | 0.00 | 0.00 | 60 | 1009.0 |
| 20260505094209 | 55 | 101 | 2.0 | 3.0 | 0.00 | 0.00 | 0.00 | 63 | 1008.8 |
| 20260505093231 | 55 | 62 | 2.0 | 2.0 | 0.00 | 0.00 | 0.00 | 64 | 1008.5 |
| 20260505092232 | 55 | 98 | 3.0 | 3.0 | 0.00 | 0.00 | 0.00 | 65 | 1008.5 |
| 20260505091157 | 55 | 39 | 3.0 | 5.0 | 0.00 | 0.00 | 0.00 | 65 | 1008.3 |
| 20260505090155 | 55 | 356 | 5.0 | 7.0 | 0.00 | 0.00 | 0.00 | 65 | 1008.3 |
| 20260505085217 | 55 | 55 | 5.0 | 7.0 | 0.00 | 0.00 | 0.00 | 66 | 1008.1 |
| 20260505084152 | 55 | 7 | 6.0 | 7.0 | 0.00 | 0.00 | 0.00 | 67 | 1008.1 |
| 20260505083231 | 56 | 29 | 3.0 | 3.0 | 0.00 | 0.00 | 0.00 | 69 | 1008.2 |
| 20260505082149 | 56 | 128 | 3.0 | 5.0 | 0.00 | 0.00 | 0.00 | 69 | 1007.6 |
| 20260505081150 | 56 | 352 | 2.0 | 5.0 | 0.00 | 0.00 | 0.00 | 72 | 1007.6 |
| 20260505080223 | 56 | 40 | 5.0 | 7.0 | 0.00 | 0.00 | 0.00 | 73 | 1007.2 |
| 20260505075132 | 56 | 328 | 5.0 | 7.0 | 0.00 | 0.00 | 0.00 | 74 | 1007.8 |
| 20260505074130 | 57 | 332 | 3.0 | 5.0 | 0.00 | 0.00 | 0.00 | 76 | 1007.8 |
| 20260505073229 | 57 | 30 | 3.0 | 3.0 | 0.00 | 0.00 | 0.00 | 77 | 1008.1 |
| 20260505072228 | 58 | 68 | 3.0 | 3.0 | 0.00 | 0.00 | 0.00 | 78 | 1007.7 |
| 20260505071226 | 59 | 13 | 2.0 | 3.0 | 0.00 | 0.00 | 0.00 | 81 | 1007.0 |
| 20260505070220 | 60 | 19 | 4.0 | 5.0 | 0.00 | 0.00 | 0.00 | 81 | 1006.8 |
| 20260505065204 | 60 | 43 | 1.0 | 2.0 | 0.00 | 0.00 | 0.00 | 80 | 1006.8 |
| 20260505064202 | 60 | 0.0 | 0.0 | 0.00 | 0.00 | 0.00 | 79 | 1006.6 | |
| 20260505063204 | 61 | 130 | 2.0 | 2.0 | 0.00 | 0.00 | 0.00 | 79 | 1006.3 |
| 20260505062203 | 60 | 134 | 2.0 | 2.0 | 0.00 | 0.00 | 0.00 | 79 | 1006.3 |
| 20260505061157 | 60 | 23 | 1.0 | 1.0 | 0.00 | 0.00 | 0.00 | 79 | 1005.8 |
| 20260505060156 | 61 | 47 | 2.0 | 2.0 | 0.00 | 0.00 | 0.00 | 78 | 1005.5 |
| 20260505055157 | 61 | 56 | 2.0 | 3.0 | 0.00 | 0.00 | 0.00 | 77 | 1005.4 |
| 20260505054156 | 62 | 45 | 2.0 | 3.0 | 0.00 | 0.00 | 0.00 | 76 | 1005.8 |
| 20260505053158 | 63 | 143 | 0.0 | 1.0 | 0.00 | 0.00 | 0.00 | 73 | 1005.9 |
| 20260505052158 | 64 | 84 | 3.0 | 3.0 | 0.00 | 0.00 | 0.00 | 72 | 1006.1 |
| 20260505051215 | 66 | 40 | 2.0 | 2.0 | 0.00 | 0.00 | 0.00 | 70 | 1005.6 |
| 20260505050157 | 67 | 266 | 3.0 | 3.0 | 0.00 | 0.00 | 0.00 | 67 | 1005.4 |
| 20260505041229 | 71 | 0.0 | 0.0 | 0.00 | 0.00 | 0.00 | 75 | 1004.3 | |
| 20260505040228 | 71 | 0.0 | 0.0 | 0.00 | 0.00 | 0.00 | 74 | 1004.4 | |
| 20260505035242 | 71 | 0.0 | 0.0 | 0.00 | 0.00 | 0.00 | 74 | 1004.0 | |
| 20260505034244 | 71 | 0.0 | 0.0 | 0.00 | 0.00 | 0.00 | 72 | 1004.3 | |
| 20260505033209 | 71 | 178 | 0.0 | 1.0 | 0.00 | 0.00 | 0.00 | 71 | 1004.5 |
| 20260505032251 | 72 | 159 | 1.0 | 2.0 | 0.00 | 0.00 | 0.00 | 71 | 1004.4 |
| 20260505031212 | 72 | 176 | 1.0 | 1.0 | 0.00 | 0.00 | 0.00 | 70 | 1004.4 |
| 20260505030210 | 72 | 0.0 | 0.0 | 0.00 | 0.00 | 0.00 | 68 | 1004.6 | |
| 20260505025204 | 73 | 0.0 | 0.0 | 0.00 | 0.00 | 0.00 | 67 | 1004.4 | |
| 20260505024243 | 73 | 0.0 | 0.0 | 0.00 | 0.00 | 0.00 | 66 | 1004.7 | |
| 20260505023221 | 73 | 149 | 1.0 | 2.0 | 0.00 | 0.00 | 0.00 | 65 | 1004.5 |
| 20260505022202 | 73 | 189 | 3.0 | 7.0 | 0.00 | 0.00 | 0.00 | 65 | 1003.9 |
| 20260505021203 | 74 | 153 | 3.0 | 3.0 | 0.00 | 0.00 | 0.00 | 63 | 1003.7 |
| 20260505020158 | 74 | 116 | 6.0 | 7.0 | 0.00 | 0.00 | 0.00 | 62 | 1003.9 |
| 20260505015202 | 74 | 143 | 3.0 | 5.0 | 0.00 | 0.00 | 0.00 | 61 | 1004.0 |
| 20260505014203 | 73 | 0.0 | 0.0 | 0.00 | 0.00 | 0.00 | 62 | 1003.6 | |
| 20260505013155 | 74 | 0.0 | 0.0 | 0.00 | 0.00 | 0.00 | 61 | 1003.3 | |
| 20260505012153 | 75 | 0.0 | 0.0 | 0.00 | 0.00 | 0.00 | 59 | 1003.3 | |
| 20260505011141 | 76 | 0.0 | 0.0 | 0.00 | 0.00 | 0.00 | 57 | 1003.2 | |
| 20260505010142 | 76 | 0.0 | 0.0 | 0.00 | 0.00 | 0.00 | 57 | 1002.9 | |
| 20260505005139 | 77 | 135 | 1.0 | 2.0 | 0.00 | 0.00 | 0.00 | 56 | 1002.6 |
| 20260505004130 | 77 | 133 | 2.0 | 2.0 | 0.00 | 0.00 | 0.00 | 55 | 1002.7 |
| 20260505003227 | 78 | 179 | 3.0 | 3.0 | 0.00 | 0.00 | 0.00 | 53 | 1002.6 |
| 20260505002248 | 78 | 151 | 4.0 | 7.0 | 0.00 | 0.00 | 0.00 | 53 | 1003.0 |
| 20260505001227 | 79 | 182 | 4.0 | 5.0 | 0.00 | 0.00 | 0.00 | 52 | 1003.3 |
| 20260505000229 | 79 | 182 | 2.0 | 3.0 | 0.00 | 0.00 | 0.00 | 51 | 1003.1 |
| 20260504235230 | 79 | 171 | 4.0 | 5.0 | 0.00 | 0.00 | 0.00 | 50 | 1003.1 |
| 20260504234229 | 80 | 176 | 6.0 | 8.0 | 0.00 | 0.00 | 0.00 | 50 | 1003.1 |
| 20260504233228 | 81 | 158 | 6.0 | 8.0 | 0.00 | 0.00 | 0.00 | 48 | 1003.2 |
| 20260504232229 | 82 | 139 | 3.0 | 3.0 | 0.00 | 0.00 | 0.00 | 49 | 1003.2 |
| 20260504231227 | 82 | 135 | 2.0 | 3.0 | 0.00 | 0.00 | 0.00 | 48 | 1002.9 |
| 20260504230223 | 82 | 185 | 9.0 | 10.0 | 0.00 | 0.00 | 0.00 | 46 | 1003.1 |
| 20260504225221 | 82 | 148 | 6.0 | 7.0 | 0.00 | 0.00 | 0.00 | 47 | 1003.0 |
| 20260504224223 | 84 | 111 | 2.0 | 3.0 | 0.00 | 0.00 | 0.00 | 46 | 1003.0 |
| 20260504223217 | 84 | 137 | 5.0 | 7.0 | 0.00 | 0.00 | 0.00 | 45 | 1002.7 |
| 20260504222215 | 86 | 139 | 2.0 | 3.0 | 0.00 | 0.00 | 0.00 | 43 | 1002.5 |
| 20260504221217 | 86 | 0.0 | 0.0 | 0.00 | 0.00 | 0.00 | 41 | 1002.6 | |
| 20260504220209 | 86 | 221 | 2.0 | 2.0 | 0.00 | 0.00 | 0.00 | 38 | 1002.7 |
| 20260504215208 | 86 | 0.0 | 0.0 | 0.00 | 0.00 | 0.00 | 40 | 1002.9 | |
| 20260504214206 | 87 | 219 | 4.0 | 5.0 | 0.00 | 0.00 | 0.00 | 40 | 1003.1 |
| 20260504213203 | 86 | 0.0 | 0.0 | 0.00 | 0.00 | 0.00 | 41 | 1003.2 | |
| 20260504212202 | 86 | 193 | 3.0 | 3.0 | 0.00 | 0.00 | 0.00 | 41 | 1003.3 |
| 20260504211155 | 85 | 0.0 | 0.0 | 0.00 | 0.00 | 0.00 | 38 | 1003.2 | |
| 20260504210138 | 84 | 0.0 | 0.0 | 0.00 | 0.00 | 0.00 | 41 | 1003.7 | |
| 20260504205156 | 84 | 222 | 3.0 | 3.0 | 0.00 | 0.00 | 0.00 | 39 | 1003.9 |
| 20260504204138 | 84 | 0.0 | 0.0 | 0.00 | 0.00 | 0.00 | 39 | 1004.1 | |
| 20260504203136 | 84 | 190 | 0.0 | 1.0 | 0.00 | 0.00 | 0.00 | 40 | 1004.5 |
| 20260504202137 | 84 | 0.0 | 0.0 | 0.00 | 0.00 | 0.00 | 39 | 1004.4 | |
| 20260504201137 | 84 | 175 | 3.0 | 3.0 | 0.00 | 0.00 | 0.00 | 41 | 1004.7 |
| 20260504200135 | 84 | 160 | 2.0 | 3.0 | 0.00 | 0.00 | 0.00 | 41 | 1004.7 |
| 20260504195137 | 83 | 145 | 3.0 | 3.0 | 0.00 | 0.00 | 0.00 | 39 | 1005.0 |
| 20260504194136 | 82 | 0.0 | 0.0 | 0.00 | 0.00 | 0.00 | 42 | 1005.2 | |
| 20260504193230 | 83 | 162 | 1.0 | 1.0 | 0.00 | 0.00 | 0.00 | 40 | 1005.4 |
| 20260504192223 | 83 | 213 | 2.0 | 3.0 | 0.00 | 0.00 | 0.00 | 43 | 1005.3 |
| 20260504191239 | 83 | 73 | 3.0 | 3.0 | 0.00 | 0.00 | 0.00 | 42 | 1005.4 |
| 20260504190209 | 81 | 127 | 3.0 | 5.0 | 0.00 | 0.00 | 0.00 | 43 | 1005.6 |
| 20260504185202 | 82 | 174 | 1.0 | 1.0 | 0.00 | 0.00 | 0.00 | 45 | 1005.8 |
| 20260504184204 | 81 | 166 | 3.0 | 6.0 | 0.00 | 0.00 | 0.00 | 44 | 1005.7 |
| 20260504183202 | 79 | 273 | 3.0 | 3.0 | 0.00 | 0.00 | 0.00 | 46 | 1006.1 |
| 20260504182158 | 80 | 248 | 4.0 | 5.0 | 0.00 | 0.00 | 0.00 | 45 | 1006.0 |
| 20260504181215 | 78 | 183 | 3.0 | 5.0 | 0.00 | 0.00 | 0.00 | 49 | 1006.0 |
| 20260504180157 | 78 | 268 | 2.0 | 3.0 | 0.00 | 0.00 | 0.00 | 47 | 1005.9 |
| 20260504175149 | 79 | 192 | 2.0 | 2.0 | 0.00 | 0.00 | 0.00 | 49 | 1005.8 |
| 20260504174150 | 80 | 214 | 6.0 | 7.0 | 0.00 | 0.00 | 0.00 | 48 | 1006.1 |
| 20260504173136 | 78 | 250 | 5.0 | 7.0 | 0.00 | 0.00 | 0.00 | 47 | 1006.3 |
| 20260504172031 | 79 | 225 | 3.0 | 3.0 | 0.00 | 0.00 | 0.00 | 49 | 1006.2 |
| 20260504171129 | 78 | 144 | 4.0 | 6.0 | 0.00 | 0.00 | 0.00 | 48 | 1006.1 |
| 20260504170128 | 78 | 246 | 7.0 | 8.0 | 0.00 | 0.00 | 0.00 | 50 | 1006.3 |
| 20260504160129 | 71 | 133 | 1.0 | 2.0 | 0.00 | 0.00 | 0.00 | 55 | 1006.3 |
| 20260504151109 | 70 | 221 | 4.0 | 5.0 | 0.00 | 0.00 | 0.00 | 57 | 1006.2 |
| 20260504150111 | 70 | 242 | 4.0 | 5.0 | 0.00 | 0.00 | 0.00 | 57 | 1006.0 |
| 20260504141057 | 68 | 219 | 5.0 | 9.0 | 0.00 | 0.00 | 0.00 | 60 | 1006.3 |
| 20260504120110 | 62 | 167 | 3.0 | 5.0 | 0.00 | 0.00 | 0.00 | 63 | 1006.2 |